Wind_Speed
8 8 7 8 8 9 9 9 9 10 11 12 13 13 13 14 14 14 14 13 12 12 11 10 10 10 9 9 9 8 8 7 6 5 5 4 4 3 3 3 3 3 3
8 8 7 8 8 9 9 9 10 11 12 13 14 14 13 13 14 14 14 13 12 12 11 10 10 9 9 8 8 8 7 7 6 5 4 4 4 3 3 3 3 3 3
8 8 8 7 8 8 9 9 9 10 12 13 14 14 13 13 13 14 14 13 12 11 10 10 10 9 9 8 8 7 7 7 6 5 5 5 4 3 3 3 2 2 2
8 8 7 7 8 8 9 10 10 10 11 12 13 13 13 13 12 13 13 12 11 11 10 10 9 9 8 8 7 7 7 6 6 5 4 4 3 3 3 2 1 1 1
9 8 8 8 7 8 9 10 10 10 11 11 12 12 12 12 11 12 12 11 11 11 11 10 9 8 7 8 7 7 7 6 6 5 4 4 3 3 2 2 1 1 1
10 10 9 8 8 9 8 9 10 10 11 11 12 12 12 11 11 11 11 10 10 10 10 9 8 8 7 8 7 7 7 6 5 5 5 4 3 2 2 2 1 1 1
12 11 10 8 8 10 9 9 10 10 10 11 11 12 11 10 10 10 10 9 9 9 9 9 8 7 6 6 7 7 7 6 5 5 4 3 3 2 2 2 2 1 1
13 12 11 11 10 10 10 10 10 10 10 10 11 10 10 10 9 9 9 9 9 8 8 8 7 6 6 6 7 7 7 6 5 5 4 3 2 2 2 2 2 2 2
14 13 13 12 11 11 11 10 10 10 10 9 9 9 9 9 9 8 8 8 8 8 8 7 7 7 7 6 6 6 6 6 5 4 3 2 2 2 2 2 3 3 3
14 13 13 12 11 10 11 11 11 10 9 9 8 8 9 8 8 8 8 8 7 7 8 8 7 6 6 7 6 6 6 6 5 4 3 3 2 2 2 2 3 3 3
15 14 13 13 12 11 11 11 11 10 9 9 8 7 7 8 7 7 7 7 6 8 8 7 6 6 6 6 5 5 5 5 4 4 4 3 3 3 2 2 3 4 3
14 14 13 12 12 11 11 11 11 11 10 10 8 7 7 7 6 6 6 7 7 7 6 6 5 5 6 6 5 5 5 4 3 3 3 3 4 3 2 3 4 4 4
14 14 13 12 11 11 10 10 10 10 9 9 8 8 7 6 5 6 6 5 6 6 6 6 5 5 5 5 5 5 5 4 3 3 4 4 4 4 4 4 4 4 4
14 13 13 13 12 11 10 10 9 9 9 8 7 6 6 5 6 6 5 4 4 5 6 6 5 4 4 5 5 5 4 4 4 4 4 5 4 4 5 5 5 5 4
14 13 13 12 12 11 10 9 9 8 8 8 7 6 5 5 5 3 2 3 3 4 5 5 4 4 4 4 5 5 4 4 4 5 5 5 5 5 6 6 6 6 6
14 13 13 12 12 11 10 9 9 8 7 7 6 5 5 4 3 2 2 2 2 3 4 5 4 4 4 4 4 4 4 4 5 5 6 6 6 6 7 7 7 7 7
14 14 13 12 11 11 10 10 9 7 6 6 5 5 4 3 2 1 1 0 1 2 3 4 4 5 4 4 4 4 4 5 5 6 6 6 7 7 7 7 7 7 8
15 14 13 12 11 11 10 9 8 7 6 5 5 4 4 3 1 1 1 1 1 2 2 3 4 4 4 4 4 4 5 5 6 6 7 7 7 7 7 7 7 7 8
14 14 13 12 11 10 10 9 8 7 6 5 4 4 3 3 2 1 1 1 1 1 1 2 3 3 4 5 5 5 5 6 6 5 6 6 7 7 7 7 8 8 8
13 13 13 12 11 10 10 9 7 7 6 5 5 4 4 3 2 1 1 0 1 1 2 2 3 3 3 4 5 5 5 5 5 5 6 6 6 7 7 8 8 8 9
12 12 12 12 12 11 10 9 8 7 7 6 5 5 4 4 3 3 2 1 0 1 1 2 2 2 3 3 4 5 5 5 5 6 6 6 7 7 8 8 8 9 10
11 11 11 11 11 11 11 10 9 7 7 7 6 6 5 4 4 3 3 2 1 0 1 1 1 1 2 2 3 4 5 5 5 6 7 7 8 8 9 9 9 10 10
10 10 10 11 11 11 11 10 9 8 7 7 6 6 5 5 4 4 4 3 2 1 0 0 1 1 1 2 3 4 4 5 6 6 7 8 8 9 10 10 9 9 11
10 10 10 10 10 10 11 11 10 9 8 7 6 6 5 5 5 4 3 3 2 2 0 0 1 1 2 2 3 4 5 6 7 7 7 8 8 9 9 10 10 11 11
9 9 9 9 9 10 10 11 11 10 10 9 7 7 6 6 5 4 3 3 2 2 1 1 2 2 3 4 4 5 6 7 7 8 8 8 8 9 9 10 10 11 11
8 8 8 8 8 9 10 10 10 9 9 9 8 7 7 6 6 5 4 3 3 3 3 2 3 3 4 5 5 6 6 7 7 8 8 9 9 9 10 10 11 12 12
Wind_Direction
87 95 106 119 131 140 143 147 148 151 154 156 154 153 153 154 155 154 154 151 149 148 148 146 143 145 146 147 146 144 145 147 142 132 140 152 156 147 122 97 102 97 81
85 86 102 113 128 136 138 142 145 145 147 150 150 150 154 154 152 154 156 153 152 150 152 152 149 152 154 151 147 146 145 148 145 134 137 148 155 150 130 111 105 89 80
79 80 93 106 125 131 134 136 135 141 143 147 149 151 153 154 152 152 153 152 153 154 154 155 152 155 155 155 153 149 146 147 143 143 146 144 147 145 135 115 100 84 80
76 82 93 110 123 127 130 132 131 133 138 141 147 151 152 153 152 151 156 157 157 156 158 160 158 159 158 161 160 158 155 151 150 151 151 145 145 145 150 140 101 75 81
74 79 91 101 115 125 125 131 132 134 136 140 145 152 155 156 155 154 157 159 161 160 159 163 163 161 167 167 164 160 156 157 158 158 152 152 153 158 158 145 122 96 121
76 78 86 90 106 125 127 134 135 138 140 143 147 152 155 156 157 156 155 160 163 165 166 167 164 161 165 168 168 162 157 157 167 164 158 162 170 180 178 164 155 111 129
76 77 77 80 98 113 120 126 130 133 137 142 148 153 155 156 159 158 158 163 165 167 172 171 165 166 172 174 170 167 165 160 164 165 165 167 169 171 172 176 185 199 195
74 76 77 78 91 107 114 117 122 128 130 138 147 148 150 154 159 160 160 166 166 166 175 174 174 173 176 178 176 172 176 167 163 166 171 171 191 206 218 213 212 219 223
73 76 75 80 89 100 109 114 114 116 120 125 136 141 147 156 158 159 160 166 163 163 169 174 178 175 175 178 179 177 180 172 167 173 186 191 208 227 229 227 225 227 225
69 71 73 78 87 99 105 110 112 110 112 120 127 134 141 148 151 157 162 167 162 162 168 175 177 173 176 178 181 182 181 180 177 186 198 202 215 228 243 235 234 230 222
66 67 68 75 85 94 102 106 110 109 112 117 123 130 130 129 137 150 158 160 157 161 164 167 172 171 175 182 191 192 189 189 185 196 212 220 230 242 240 245 246 238 222
65 66 70 74 81 86 90 95 101 104 108 113 118 124 126 125 127 138 147 157 154 154 161 163 165 168 178 189 197 203 210 213 205 211 217 223 235 236 238 242 239 232 226
62 65 71 74 79 80 87 92 92 95 100 107 119 122 126 126 127 134 137 141 159 163 167 172 173 180 191 200 206 213 217 229 234 237 235 240 238 230 233 238 243 247 243
60 60 65 73 77 77 82 85 89 94 91 92 100 112 118 125 130 134 140 148 153 170 172 179 183 192 204 211 220 220 219 226 237 243 246 246 244 243 242 242 247 256 251
59 58 62 69 73 77 81 81 81 88 89 88 88 94 96 108 127 140 142 160 170 180 186 188 194 200 208 214 220 223 221 230 245 253 252 247 245 248 251 250 256 259 258
58 60 62 66 69 73 77 76 75 81 85 80 85 85 89 101 114 111 114 166 197 197 200 202 205 206 215 219 215 222 232 241 249 255 260 251 245 250 256 258 259 258 259
56 59 61 65 69 72 75 72 72 75 76 71 70 75 76 85 99 115 130 135 206 205 200 206 210 212 212 211 216 225 236 246 252 256 259 253 251 252 254 260 264 260 261
53 55 58 61 64 66 69 69 68 69 71 69 65 62 62 56 67 110 136 199 212 215 215 221 221 224 228 230 232 237 245 257 260 261 260 257 256 256 255 258 263 264 264
51 51 54 57 60 59 61 63 64 64 64 61 58 55 55 58 71 99 126 177 179 182 221 241 243 241 240 240 239 245 254 262 263 264 263 259 257 260 258 261 263 268 265
49 50 52 53 54 55 56 57 60 60 58 55 52 50 45 41 40 54 91 255 232 229 250 261 260 246 241 238 244 249 256 264 267 264 265 266 263 264 267 269 268 270 266
46 48 48 48 47 49 50 51 53 56 56 56 57 54 47 38 29 23 6 351 247 255 273 272 253 247 240 243 253 258 264 265 266 262 264 269 270 270 271 274 277 277 271
41 43 43 42 41 42 44 44 44 47 46 47 45 41 37 30 18 8 9 27 56 270 307 321 290 271 260 261 264 272 275 271 268 269 269 272 274 276 277 278 279 280 276
33 33 34 36 37 37 38 39 39 40 41 39 35 34 32 23 18 22 32 41 43 46 336 14 27 335 297 281 273 277 285 284 280 278 275 272 276 279 278 280 281 284 281
26 26 28 31 33 32 31 32 33 36 32 31 30 32 32 29 31 35 36 37 42 41 37 139 356 336 314 302 295 288 285 291 287 284 283 279 278 281 281 280 281 284 284
14 20 23 25 26 27 27 27 28 29 27 27 28 28 26 28 27 26 32 28 29 24 9 312 313 311 306 306 304 295 291 292 288 289 288 288 285 284 285 284 285 285 285
360 5 11 16 19 19 20 22 22 21 19 21 21 18 17 15 18 23 27 21 4 355 349 330 313 306 305 306 306 305 301 303 292 288 292 290 289 292 290 289 288 286 285
Height
5869 5867 5866 5866 5866 5866 5867 5867 5868 5868 5869 5871 5872 5873 5875 5876 5877 5879 5880 5881 5882 5884 5885 5886 5887 5888 5889 5890 5891 5892 5893 5894 5894 5895 5896 5896 5897 5897 5897 5897 5897 5897 5897
5870 5868 5867 5867 5867 5867 5867 5868 5868 5869 5870 5871 5872 5874 5875 5876 5878 5879 5881 5882 5883 5884 5886 5886 5888 5889 5890 5891 5892 5893 5894 5894 5895 5896 5897 5897 5897 5897 5898 5898 5898 5898 5898
5871 5869 5868 5868 5868 5868 5868 5869 5869 5870 5870 5871 5873 5874 5876 5877 5878 5879 5881 5882 5884 5885 5886 5887 5888 5889 5890 5891 5892 5893 5894 5895 5896 5897 5897 5897 5897 5898 5898 5898 5899 5899 5898
5872 5871 5870 5869 5868 5869 5869 5870 5870 5871 5871 5872 5874 5875 5877 5878 5879 5880 5882 5883 5884 5885 5887 5887 5889 5890 5891 5892 5893 5894 5895 5895 5896 5897 5897 5897 5897 5898 5898 5899 5899 5899 5899
5873 5872 5871 5870 5869 5869 5870 5871 5871 5872 5873 5874 5875 5876 5878 5879 5880 5881 5883 5884 5885 5886 5887 5888 5889 5890 5890 5892 5893 5894 5895 5896 5896 5897 5897 5897 5898 5898 5899 5899 5899 5899 5899
5874 5873 5872 5871 5869 5870 5871 5872 5873 5873 5874 5875 5876 5877 5878 5880 5881 5882 5883 5885 5886 5887 5888 5889 5889 5890 5891 5892 5893 5894 5895 5896 5896 5897 5897 5898 5898 5898 5899 5899 5899 5899 5900
5876 5875 5873 5872 5870 5871 5872 5873 5874 5875 5876 5876 5877 5878 5879 5880 5882 5883 5884 5885 5886 5887 5888 5889 5890 5890 5891 5892 5893 5893 5895 5896 5896 5897 5898 5898 5899 5899 5899 5899 5900 5900 5900
5878 5876 5875 5874 5873 5873 5874 5875 5875 5876 5877 5877 5878 5879 5880 5881 5882 5883 5884 5885 5886 5887 5888 5889 5890 5891 5891 5892 5893 5894 5895 5896 5896 5897 5898 5898 5899 5899 5899 5899 5899 5900 5900
5881 5879 5878 5877 5875 5875 5876 5876 5877 5878 5878 5879 5879 5880 5881 5882 5883 5884 5885 5885 5886 5888 5888 5889 5890 5890 5891 5892 5893 5894 5895 5895 5896 5897 5897 5898 5898 5899 5899 5899 5899 5899 5899
5883 5882 5880 5879 5878 5878 5878 5878 5879 5879 5879 5880 5880 5881 5882 5882 5883 5884 5885 5886 5887 5887 5888 5889 5890 5890 5891 5892 5893 5894 5895 5895 5896 5897 5897 5898 5898 5899 5899 5899 5899 5899 5899
5886 5884 5883 5882 5881 5881 5880 5880 5880 5881 5881 5881 5882 5882 5883 5883 5884 5885 5886 5886 5887 5887 5888 5889 5890 5891 5892 5893 5894 5894 5895 5895 5896 5896 5897 5898 5898 5898 5898 5898 5899 5899 5899
5888 5887 5886 5885 5884 5884 5883 5883 5882 5882 5883 5883 5883 5883 5884 5885 5885 5885 5886 5887 5887 5888 5889 5889 5890 5891 5892 5893 5893 5894 5895 5895 5895 5896 5897 5897 5898 5898 5898 5898 5898 5898 5898
5891 5889 5888 5887 5887 5886 5886 5885 5885 5884 5884 5885 5885 5885 5885 5886 5886 5886 5886 5887 5888 5889 5889 5890 5890 5891 5892 5892 5893 5893 5894 5894 5895 5896 5896 5896 5897 5897 5897 5897 5897 5897 5897
5893 5892 5890 5889 5889 5888 5887 5887 5887 5886 5886 5886 5886 5887 5887 5887 5887 5887 5887 5888 5889 5889 5889 5890 5890 5891 5892 5892 5893 5893 5894 5894 5895 5895 5895 5895 5896 5896 5896 5896 5896 5897 5897
5896 5894 5893 5892 5891 5890 5889 5889 5888 5888 5888 5888 5888 5888 5888 5888 5888 5888 5888 5889 5889 5889 5889 5890 5890 5891 5891 5892 5892 5893 5893 5894 5894 5894 5894 5894 5894 5895 5895 5895 5896 5896 5896
5898 5897 5895 5894 5893 5892 5891 5891 5890 5890 5890 5890 5889 5889 5889 5889 5889 5889 5889 5889 5889 5889 5889 5890 5890 5891 5891 5891 5892 5892 5893 5893 5893 5893 5893 5893 5893 5894 5894 5894 5894 5894 5895
5901 5899 5898 5897 5895 5894 5894 5893 5892 5891 5891 5891 5890 5889 5889 5889 5889 5889 5889 5889 5889 5889 5889 5889 5890 5890 5891 5891 5891 5891 5892 5892 5892 5892 5892 5892 5892 5892 5892 5893 5893 5893 5893
5904 5902 5901 5899 5898 5897 5896 5895 5894 5893 5892 5892 5891 5890 5890 5889 5889 5889 5889 5889 5889 5889 5889 5889 5889 5890 5890 5890 5891 5891 5891 5891 5891 5890 5890 5890 5890 5890 5890 5891 5891 5891 5891
5906 5905 5903 5901 5900 5899 5898 5896 5895 5894 5893 5892 5892 5891 5890 5890 5889 5889 5889 5889 5889 5889 5889 5889 5889 5889 5889 5890 5890 5890 5890 5890 5890 5889 5889 5889 5889 5889 5889 5889 5889 5889 5889
5909 5907 5905 5904 5902 5901 5899 5898 5897 5896 5895 5894 5893 5892 5891 5890 5890 5889 5889 5889 5888 5888 5888 5888 5888 5888 5888 5889 5889 5889 5889 5889 5888 5888 5888 5888 5888 5888 5888 5887 5887 5887 5887
5911 5909 5907 5906 5904 5902 5901 5899 5898 5897 5896 5895 5894 5892 5891 5890 5890 5889 5888 5888 5888 5888 5888 5888 5888 5887 5887 5887 5888 5888 5888 5887 5887 5887 5887 5886 5886 5886 5886 5886 5885 5885 5885
5913 5911 5909 5908 5906 5904 5902 5901 5899 5898 5896 5895 5894 5893 5892 5890 5890 5889 5888 5888 5888 5888 5887 5887 5887 5887 5887 5887 5887 5887 5887 5887 5886 5886 5885 5885 5885 5884 5884 5883 5883 5883 5882
5914 5912 5911 5909 5907 5906 5904 5902 5900 5898 5897 5896 5895 5893 5892 5891 5890 5889 5888 5887 5887 5887 5887 5887 5887 5886 5886 5886 5886 5886 5886 5885 5885 5884 5883 5883 5883 5882 5881 5881 5881 5880 5880
5915 5914 5912 5910 5909 5907 5905 5903 5901 5899 5898 5896 5895 5894 5892 5891 5890 5889 5888 5887 5887 5887 5887 5887 5886 5886 5886 5886 5885 5885 5885 5884 5883 5882 5882 5881 5880 5879 5879 5879 5878 5878 5877
5916 5915 5913 5911 5910 5908 5906 5904 5902 5900 5899 5897 5896 5894 5893 5891 5890 5889 5888 5887 5887 5887 5886 5886 5886 5886 5885 5885 5885 5884 5883 5882 5881 5881 5880 5879 5878 5877 5877 5876 5875 5875 5874
5916 5915 5914 5912 5911 5909 5907 5905 5903 5901 5899 5897 5896 5895 5893 5892 5890 5889 5888 5888 5887 5887 5886 5886 5885 5885 5885 5884 5883 5882 5882 5881 5879 5878 5878 5877 5876 5875 5874 5873 5872 5872 5871